RH
24 26 27 27 26 27 29 28 27 25 24 23 24 28 29 34 42 52 62 62 62 66 68 77 77 86 85 87 91 90 84 86 72 59 70 56 37 32 33 36 40 73 87
34 36 37 36 35 38 39 36 36 36 37 37 34 34 34 33 34 37 38 43 52 56 58 59 72 84 86 84 90 92 91 89 86 79 59 71 67 43 35 35 38 43 69
41 44 47 48 50 48 48 49 49 48 47 46 41 39 38 38 40 42 46 48 48 49 56 61 64 70 82 91 91 92 99 96 92 88 80 59 68 74 44 37 37 39 44
47 50 51 52 52 53 54 55 53 51 51 46 42 39 39 42 45 57 71 76 74 78 78 67 55 55 65 71 76 78 96 99 99 97 93 85 62 69 74 46 41 39 39
47 48 50 55 55 52 48 46 47 47 41 36 25 27 42 54 65 77 80 72 76 79 78 76 72 67 66 63 59 57 59 78 95 99 99 96 91 63 69 72 52 42 39
45 46 49 49 47 43 40 31 19 14 14 8 7 11 30 67 73 78 70 69 74 70 63 67 64 55 59 60 60 63 67 74 82 90 97 99 98 91 75 75 69 56 46
43 40 38 36 30 22 13 5 4 4 4 4 4 5 24 64 72 73 69 80 79 75 78 73 70 68 65 66 76 90 78 68 54 53 77 74 85 100 86 78 74 68 70
27 18 13 9 7 5 4 4 4 4 5 7 13 39 55 44 32 76 77 78 91 79 86 88 89 89 93 99 100 100 98 91 87 81 70 81 84 97 99 99 81 83 68
21 17 14 12 9 7 6 5 5 5 6 10 16 57 83 92 58 80 78 87 78 88 98 94 84 86 92 99 99 95 96 95 99 97 82 91 99 98 77 97 90 86 79
22 20 19 17 15 13 10 7 6 5 5 7 14 21 71 99 96 95 63 64 73 86 98 95 92 88 85 88 95 94 99 97 88 90 81 81 92 87 90 94 100 98 99
25 24 26 25 24 21 16 10 7 6 6 8 12 17 21 44 100 77 80 45 40 60 88 99 96 87 85 82 83 84 92 96 98 90 99 97 69 70 73 96 77 81 100
28 28 30 31 31 29 23 15 9 8 8 8 9 13 19 21 25 32 48 39 27 18 75 100 94 82 71 59 65 75 78 85 92 96 94 89 90 79 73 91 99 99 91
33 33 35 37 38 36 31 22 12 9 9 9 10 14 18 21 29 39 45 50 57 28 98 89 73 48 33 15 14 20 37 49 62 83 88 87 90 92 89 96 100 84 81
43 36 38 42 44 43 38 28 18 11 9 10 12 15 19 24 31 44 57 59 62 58 61 65 64 42 24 17 14 13 11 10 13 24 42 62 84 90 86 92 95 97 89
55 43 40 43 46 48 46 40 27 14 10 13 15 17 21 25 33 45 60 69 69 77 58 81 72 36 33 25 20 16 14 12 14 12 11 10 14 35 55 77 86 89 92
59 57 46 43 46 50 51 46 34 18 12 13 14 16 19 20 25 35 50 62 71 71 70 52 42 51 44 40 34 26 21 17 15 16 13 12 13 13 10 14 27 49 71
58 61 60 47 45 49 52 51 43 27 16 12 14 15 20 23 30 37 46 56 69 74 77 60 54 60 56 53 51 49 38 30 27 25 23 20 20 20 18 14 11 12 13
65 66 66 60 47 48 52 54 49 34 19 14 16 19 21 22 24 27 34 44 52 70 74 70 60 56 58 60 64 65 68 50 44 39 42 45 33 27 26 27 17 16 13
65 72 70 67 60 49 51 54 54 46 30 16 13 16 19 22 22 25 29 30 35 44 64 68 59 50 57 59 62 69 66 63 55 44 44 47 48 49 38 28 26 20 17
64 70 73 71 68 58 50 53 55 50 36 20 14 18 23 23 22 25 26 27 32 34 42 47 46 47 52 54 62 64 54 52 45 46 55 49 41 32 38 41 33 26 22
62 66 76 78 74 68 58 53 55 54 41 23 17 20 23 22 19 20 22 27 34 37 45 51 64 68 69 65 68 78 77 62 44 49 42 31 25 29 29 30 39 32 24
59 68 77 81 79 74 71 58 55 55 47 26 19 21 31 30 29 32 25 37 40 52 64 89 100 100 82 83 88 89 85 85 86 54 49 23 28 23 23 26 25 27 26
60 66 74 82 82 78 74 68 57 56 94 39 20 20 24 30 30 26 26 36 44 55 63 86 92 95 90 94 99 95 97 100 100 98 70 35 33 28 27 24 25 26 27
57 62 68 74 84 82 80 76 63 60 96 71 23 20 22 28 27 28 32 34 39 50 59 66 76 90 99 100 100 99 98 100 92 67 70 56 40 36 35 31 23 25 31
51 59 63 69 80 87 86 81 68 61 98 99 28 21 22 29 31 29 33 44 47 50 67 73 86 98 95 92 81 94 94 100 100 74 61 72 61 44 34 31 40 36 30
43 50 58 67 79 90 89 83 73 64 96 98 40 22 23 30 38 32 29 46 54 50 74 77 85 88 81 58 69 82 87 87 83 94 93 92 83 78 88 59 49 45 39
Wind_Speed
11 10 10 10 13 13 14 14 15 16 16 17 17 18 20 22 25 27 28 27 25 23 23 24 30 31 32 33 32 31 33 35 35 33 32 29 28 27 27 27 27 25 27
11 11 11 12 13 14 14 15 16 16 16 17 17 16 17 17 19 21 24 27 30 29 28 27 26 26 30 32 33 35 34 34 37 37 36 35 32 30 30 30 30 31 31
11 12 12 13 14 14 13 12 12 13 13 13 14 15 16 17 16 15 17 19 20 24 28 30 30 30 31 29 31 34 35 36 37 39 40 39 38 35 33 33 33 33 33
12 13 13 13 13 12 11 11 11 11 13 15 16 15 16 15 14 13 11 12 12 16 18 17 25 34 36 34 33 34 34 36 38 40 41 42 42 40 37 36 36 35 35
12 13 13 13 14 13 13 14 13 15 16 15 15 15 14 10 6 6 10 12 13 14 18 22 25 24 24 27 31 32 35 38 37 39 43 45 45 44 42 40 38 38 38
12 11 11 11 12 13 14 14 15 14 16 18 18 16 9 5 5 7 12 11 12 16 20 22 23 23 26 28 32 33 31 33 36 39 40 44 50 48 46 45 42 41 41
11 11 11 12 13 14 15 17 18 18 16 18 19 16 8 5 8 5 8 9 11 15 16 19 21 19 18 22 25 28 29 32 36 41 42 44 48 44 49 51 50 46 43
11 12 13 13 14 14 14 16 18 19 17 16 17 13 11 3 7 4 11 14 14 14 16 16 20 22 20 18 17 15 20 24 24 27 37 40 46 49 61 60 52 50 46
12 12 13 13 14 15 15 15 16 17 17 14 12 6 5 5 22 4 8 9 14 12 16 16 18 19 19 16 16 13 14 12 13 17 23 29 37 40 37 51 55 54 51
12 13 14 14 15 15 15 15 16 16 16 15 11 9 4 8 4 12 14 13 12 10 12 15 15 14 16 16 15 14 12 13 12 11 19 24 20 23 30 30 15 41 51
14 14 14 14 15 16 16 15 14 13 13 14 14 13 11 6 5 9 16 20 16 11 11 14 15 18 18 16 14 14 14 14 16 16 13 22 29 28 26 27 49 34 19
16 16 15 15 15 16 16 16 15 14 13 12 12 11 12 10 10 11 15 18 18 14 9 13 17 19 20 17 14 13 15 14 12 12 19 23 23 19 19 22 16 14 30
17 17 16 16 17 17 17 17 16 15 14 14 13 12 11 10 11 11 13 16 18 14 5 13 17 17 18 18 17 14 15 14 13 16 15 16 17 18 15 16 15 13 15
20 19 19 18 18 17 17 17 17 17 15 14 13 13 12 11 10 10 12 14 17 10 8 14 15 15 20 19 18 15 14 14 13 14 16 17 15 15 14 15 13 12 14
23 22 20 19 19 19 19 18 18 17 16 15 14 12 12 11 10 10 10 10 11 8 14 13 16 22 20 19 18 16 14 14 14 14 13 14 16 16 15 14 13 16 12
26 25 23 22 21 21 20 19 19 18 17 15 15 14 13 12 11 11 10 10 9 11 12 14 20 20 18 17 15 14 12 13 14 14 14 14 13 13 13 13 13 13 11
27 28 27 25 24 22 21 21 20 19 19 17 16 15 13 13 12 12 11 10 11 11 16 19 17 16 17 16 14 13 13 11 12 13 13 13 12 13 13 14 14 14 12
28 28 29 28 27 25 23 23 21 20 19 18 17 17 15 14 13 14 13 13 13 12 14 19 18 17 18 15 16 15 16 12 11 13 12 12 12 12 13 13 13 13 13
29 29 29 30 29 27 26 25 23 22 21 20 20 19 17 17 15 14 14 15 15 15 15 18 19 16 16 14 13 14 16 16 14 13 11 11 11 15 13 13 13 13 12
30 30 30 30 30 29 29 27 25 23 23 22 22 21 19 18 17 16 16 16 15 16 16 17 18 18 18 15 14 17 19 20 20 13 9 11 15 16 14 12 12 15 13
30 31 31 32 31 32 32 30 27 25 25 23 23 22 21 20 19 18 17 15 15 15 15 16 16 16 17 16 15 17 21 21 18 10 12 15 15 12 12 13 13 14 13
29 30 33 34 34 33 33 32 29 27 25 24 25 23 22 21 20 19 18 17 17 15 16 16 17 17 17 17 16 19 21 23 23 16 22 17 14 13 14 14 13 12 16
28 30 31 33 35 34 33 33 32 29 27 27 25 24 23 22 21 20 19 18 18 16 16 17 19 20 21 20 19 18 18 18 18 19 24 25 17 16 11 11 13 15 14
30 30 31 32 34 35 33 33 32 31 30 26 26 24 24 23 20 20 19 19 18 17 17 17 17 17 17 15 16 19 20 21 21 17 18 25 18 15 18 17 13 9 8
33 33 33 32 33 34 32 31 31 33 34 26 26 25 24 24 21 19 18 20 20 19 15 14 14 16 20 19 19 17 17 17 21 24 20 13 15 25 25 15 8 1 6
33 33 33 32 31 31 28 28 29 36 35 27 24 25 25 23 20 18 18 17 18 17 16 16 17 16 17 16 12 13 15 18 18 17 8 17 23 22 15 14 5 21 21
Wind_Direction
332 331 320 307 297 300 300 298 297 294 289 285 283 281 277 272 266 262 262 265 268 272 271 279 281 280 276 272 272 270 266 263 261 260 259 256 254 250 244 241 236 233 238
332 325 316 308 312 315 310 307 308 309 309 310 309 305 299 291 284 281 276 271 268 270 273 274 275 277 280 274 271 270 269 264 263 259 258 257 255 253 248 242 239 235 234
334 334 330 330 334 337 334 324 313 312 313 311 312 313 310 308 305 300 299 296 291 286 279 277 274 272 275 279 277 269 267 266 262 260 257 256 254 252 251 247 242 239 238
346 344 342 342 345 348 349 344 336 335 329 325 325 321 321 318 316 315 314 318 313 304 295 295 281 272 270 275 279 277 271 263 262 260 258 255 253 253 249 249 248 242 240
346 344 340 337 336 338 338 341 343 341 337 338 337 342 337 340 334 344 333 324 324 315 309 304 299 294 288 283 280 279 271 266 260 259 258 255 252 251 250 246 247 249 242
340 338 336 335 336 335 333 334 336 345 339 335 336 342 343 323 318 340 327 328 327 325 321 320 321 305 286 286 282 283 280 266 263 259 258 260 252 245 248 247 243 245 244
331 333 335 333 331 330 334 335 336 339 345 341 336 343 24 32 54 328 358 341 329 325 335 347 330 331 331 301 278 279 279 274 270 263 258 260 266 254 246 244 242 241 242
327 331 332 334 335 333 333 333 334 335 340 348 347 357 345 329 324 58 345 346 340 335 350 353 1 360 347 332 299 282 289 288 289 275 257 261 268 269 259 242 242 242 239
326 330 332 332 331 333 336 333 331 329 334 345 346 358 348 317 330 272 349 337 334 346 352 348 345 351 1 356 342 314 284 285 286 292 278 268 270 270 283 255 248 240 242
322 324 325 329 331 330 328 328 329 328 327 329 337 325 314 269 285 310 324 321 351 345 347 339 345 353 355 353 348 341 308 294 282 300 290 289 307 313 292 288 281 235 241
315 320 321 322 326 329 329 327 326 324 321 322 325 326 325 325 233 293 298 314 333 337 327 321 327 334 336 336 337 335 335 327 307 296 310 290 287 306 327 320 265 285 210
308 311 312 315 319 321 323 324 322 320 316 314 313 313 314 314 298 309 307 316 324 329 308 311 318 318 327 333 333 327 323 326 328 308 285 291 303 304 302 314 345 293 272
298 301 304 309 313 317 320 321 318 316 314 311 309 307 305 303 303 305 306 312 318 333 297 298 301 319 329 336 337 330 322 321 318 307 302 302 305 306 300 304 312 321 301
289 292 298 302 306 310 314 315 315 313 309 305 301 300 299 299 297 300 307 311 319 314 293 290 311 325 331 335 337 335 330 321 319 313 315 314 307 306 310 308 320 304 299
284 284 287 290 295 301 306 309 309 306 304 300 298 296 295 296 295 290 294 299 300 305 309 277 313 320 330 333 332 335 335 330 332 330 331 327 325 322 318 307 306 298 304
283 280 281 284 288 292 297 301 303 302 300 297 293 292 291 289 286 284 288 288 285 286 287 295 312 318 324 331 333 334 336 331 332 339 340 342 341 341 334 328 318 314 301
289 283 281 279 280 283 288 292 295 297 297 294 291 288 286 286 287 286 286 285 282 285 290 301 309 314 320 326 331 338 336 336 336 339 340 341 344 353 353 345 336 342 330
295 290 284 279 278 279 282 287 291 294 294 293 289 284 284 284 283 281 285 286 285 287 292 300 309 314 314 317 319 326 330 334 337 335 338 345 349 350 346 342 339 342 347
297 293 287 281 279 276 277 280 283 287 288 287 283 281 282 282 281 282 282 286 283 283 286 291 302 311 312 320 308 305 316 321 329 324 316 331 335 347 343 330 327 330 335
295 292 288 286 280 276 273 274 277 281 283 283 281 279 279 279 283 282 283 286 282 284 284 288 294 301 303 308 309 307 308 317 325 317 309 327 326 329 332 331 324 321 326
293 291 287 284 281 276 272 271 272 276 278 277 275 275 276 277 279 280 285 282 282 285 289 293 297 301 305 306 307 313 316 320 327 317 318 332 329 335 334 330 325 323 324
290 287 285 284 282 279 275 270 268 268 273 273 274 274 273 274 278 279 285 286 287 289 293 297 298 298 307 307 306 308 311 318 323 322 318 325 326 324 324 325 327 328 323
293 288 285 283 282 281 279 273 267 266 267 272 268 270 271 271 272 277 279 279 280 281 274 277 283 290 296 303 305 313 315 313 310 311 320 316 330 326 328 330 321 313 313
294 291 288 286 283 282 279 273 266 262 266 265 268 267 269 269 269 271 275 277 283 285 282 277 277 285 291 299 299 307 307 305 305 310 319 308 324 316 319 325 315 306 304
294 289 287 285 282 280 278 272 262 255 263 259 268 265 267 268 269 271 272 277 282 288 288 278 274 277 279 278 281 280 286 296 302 311 317 305 315 315 319 324 320 287 295
300 292 286 282 281 279 275 269 259 252 260 254 260 263 262 264 262 269 273 271 278 291 291 284 282 286 289 292 280 277 284 288 297 310 291 302 307 321 325 315 269 300 308